This is the latest recevied weather packets stored in our database for station/object ON6OO-13. If no packets are shown the sender has not sent any weather packets the latest 10 day(s).
| Time | Temp. | Humidity | Pressure | Rain* | Wind** | Luminosity | Snow |
|---|---|---|---|---|---|---|---|
| 1777707349 | 17.22° C | 66% | 1011.5 hPa | 0 mm | - | - | - |
| 1777706437 | 16.67° C | 67% | 1011.8 hPa | 0 mm | - | - | - |
| 1777705525 | 16.11° C | 67% | 1011.8 hPa | 0 mm | - | - | - |
| 1777704613 | 16.11° C | 68% | 1011.8 hPa | 0 mm | - | - | - |
| 1777703701 | 15° C | 64% | 1011.8 hPa | 0 mm | - | - | - |
| 1777702790 | 13.89° C | 66% | 1011.8 hPa | 0 mm | - | - | - |
| 1777701877 | 12.78° C | 70% | 1011.8 hPa | 0 mm | - | - | - |
| 1777700965 | 12.78° C | 68% | 1011.8 hPa | 0 mm | - | - | - |
| 1777700053 | 12.22° C | 68% | 1011.5 hPa | 0 mm | - | - | - |
| 1777699141 | 12.78° C | 68% | 1011.8 hPa | 0 mm | - | - | - |
| 1777698229 | 12.22° C | 65% | 1011.5 hPa | 0 mm | - | - | - |
| 1777697317 | 12.22° C | 63% | 1011.5 hPa | 0 mm | - | - | - |
| 1777696405 | 12.22° C | 63% | 1011.8 hPa | 0 mm | - | - | - |
| 1777695493 | 11.67° C | 63% | 1011.5 hPa | 0 mm | - | - | - |
| 1777694581 | 11.67° C | 62% | 1011.8 hPa | 0 mm | - | - | - |
| 1777693669 | 11.67° C | 62% | 1011.5 hPa | 0 mm | - | - | - |
| 1777692757 | 11.67° C | 63% | 1011.8 hPa | 0 mm | - | - | - |
| 1777691845 | 11.67° C | 61% | 1011.8 hPa | 0 mm | - | - | - |
| 1777690933 | 11.67° C | 60% | 1011.5 hPa | 0 mm | - | - | - |
| 1777690021 | 11.67° C | 60% | 1011.5 hPa | 0 mm | - | - | - |
| 1777689109 | 11.67° C | 60% | 1011.8 hPa | 0 mm | - | - | - |
| 1777688197 | 11.67° C | 62% | 1011.8 hPa | 0 mm | - | - | - |
| 1777687285 | 12.22° C | 61% | 1012.1 hPa | 0 mm | - | - | - |
| 1777686373 | 12.22° C | 59% | 1011.8 hPa | 0 mm | - | - | - |
| 1777685461 | 12.22° C | 58% | 1011.8 hPa | 0 mm | - | - | - |
* Rain latest hour (hover to see other rain measurements)
** Current wind speed in m/s (hover to see current wind gust speed)